CDT,Max TemperatureF,Mean TemperatureF,Min TemperatureF,Max Dew PointF,MeanDew PointF,Min DewpointF,Max Humidity, Mean Humidity, Min Humidity, Max Sea Level PressureIn, Mean Sea Level PressureIn, Min Sea Level PressureIn, Max VisibilityMiles, Mean VisibilityMiles, Min VisibilityMiles, Max Wind SpeedMPH, Mean Wind SpeedMPH, Max Gust SpeedMPH,PrecipitationIn, CloudCover, Events, WindDirDegrees
2012-9-1,76,72,68,72,66,59,93,82,70,29.99,29.94,29.89,10,9,5,20,14,26,0.31,6,Rain,62
2012-9-2,85,77,69,72,68,63,97,79,61,29.92,29.88,29.85,10,9,2,14,6,18,T,6,Rain,43
2012-9-3,92,79,65,72,68,64,100,74,47,29.94,29.91,29.86,10,7,0,9,1,9,0.00,0,Fog,298
2012-9-4,93,81,68,73,71,57,100,75,49,29.90,29.85,29.78,10,9,5,22,3,26,0.00,1,,165
2012-9-5,85,74,63,70,64,59,97,76,55,29.98,29.84,29.76,10,9,2,30,7,43,0.62,3,Rain-Thunderstorm,252
2012-9-6,83,71,59,68,58,48,93,62,31,29.98,29.91,29.86,10,10,9,12,2,17,0.00,0,,278
2012-9-7,77,68,59,64,59,52,97,81,64,29.94,29.86,29.81,10,9,2,21,7,28,0.89,4,Rain-Thunderstorm,16
2012-9-8,73,63,52,50,49,47,89,65,41,30.00,29.94,29.82,10,10,10,22,11,28,0.00,1,,296
2012-9-9,74,63,51,54,49,47,89,65,41,30.17,30.08,29.93,10,10,10,15,5,20,0.00,0,,347
2012-9-10,77,62,47,55,51,46,93,67,40,30.21,30.14,30.06,10,10,10,15,5,23,0.00,0,,174
2012-9-11,83,70,56,59,55,51,86,63,40,30.11,30.06,30.00,10,10,10,17,9,24,0.00,0,,184
2012-9-12,86,74,62,63,58,55,78,58,37,30.12,30.07,30.03,10,10,10,16,7,22,0.00,0,,192
2012-9-13,70,59,47,59,50,42,96,72,48,30.37,30.29,30.13,10,8,0,21,7,28,0.11,6,Fog-Rain,10
2012-9-14,75,60,45,53,47,45,100,68,35,30.39,30.34,30.30,10,5,0,12,3,15,0.00,3,Fog,248
2012-9-15,79,62,45,51,47,43,100,65,29,30.33,30.24,30.14,10,10,10,10,2,15,0.00,0,,211
2012-9-16,76,61,45,55,50,44,100,71,41,30.13,30.05,29.96,10,10,10,12,3,16,0.00,0,,208
2012-9-17,77,64,50,63,56,46,100,78,56,29.96,29.89,29.78,10,8,2,28,6,33,0.25,5,Rain-Thunderstorm,295
2012-9-18,64,52,40,46,39,33,89,63,36,30.05,29.98,29.91,10,10,10,22,7,26,0.00,0,,312
2012-9-19,76,58,40,52,42,36,86,60,33,30.05,29.92,29.76,10,10,10,26,11,36,T,2,,210
2012-9-20,71,58,44,46,40,32,92,59,26,29.96,29.93,29.88,10,10,10,22,6,29,0.00,0,,278
2012-9-21,64,53,42,49,44,40,93,73,52,29.95,29.88,29.79,10,10,10,20,6,24,0.01,3,,68
2012-9-22,62,51,39,46,38,31,100,71,42,30.24,30.06,29.83,10,10,9,24,9,33,0.00,2,,295
2012-9-23,63,48,33,38,33,28,92,60,27,30.32,30.27,30.24,10,10,10,17,4,30,0.00,0,,301
2012-9-24,73,52,30,42,35,29,92,59,25,30.25,30.08,29.88,10,10,10,17,7,23,0.00,0,,211
2012-9-25,81,65,49,59,53,43,93,69,45,29.89,29.84,29.79,10,10,4,10,2,13,0.00,0,,192
2012-9-26,75,63,50,56,49,39,93,66,38,30.16,30.00,29.88,10,9,1,13,5,21,0.00,0,,33
2012-9-27,69,55,40,45,41,37,100,66,31,30.25,30.20,30.15,10,10,10,14,4,18,0.00,0,,73
2012-9-28,71,54,37,47,40,36,93,62,31,30.25,30.18,30.13,10,9,1,13,2,21,0.00,0,Fog,31
2012-9-29,81,60,38,47,42,38,89,56,23,30.16,30.07,29.96,10,10,9,17,4,22,0.00,0,,268
2012-9-30,75,58,41,48,44,40,92,62,31,30.00,29.95,29.89,10,10,10,10,4,14,0.00,0,,79